TimeEST,TemperatureF,Dew PointF,Humidity,Sea Level PressureIn,VisibilityMPH,Wind Direction,Wind SpeedMPH,Gust SpeedMPH,PrecipitationIn,Events,Conditions,WindDirDegrees,DateUTC
12:52 AM,43.0,39.9,89,30.19,10.0,North,4.6,-,N/A,,Clear,360,2012-11-20 05:52:00
1:52 AM,43.0,39.9,89,30.18,10.0,North,5.8,-,N/A,,Clear,350,2012-11-20 06:52:00
2:52 AM,42.8,39.2,87,30.17,10.0,North,6.9,-,N/A,,Clear,350,2012-11-20 07:52:00
3:52 AM,43.0,39.9,89,30.16,10.0,North,5.8,-,N/A,,Scattered Clouds,350,2012-11-20 08:52:00
4:52 AM,39.0,37.9,96,30.16,10.0,North,4.6,-,N/A,,Mostly Cloudy,10,2012-11-20 09:52:00
5:52 AM,41.0,39.0,93,30.17,10.0,North,5.8,-,N/A,,Mostly Cloudy,360,2012-11-20 10:52:00
6:52 AM,43.0,39.0,86,30.17,10.0,NE,3.5,-,N/A,,Overcast,40,2012-11-20 11:52:00
7:52 AM,42.1,39.9,92,30.19,10.0,North,4.6,-,N/A,,Overcast,350,2012-11-20 12:52:00
8:52 AM,46.9,42.1,83,30.19,10.0,NNE,3.5,-,N/A,,Overcast,20,2012-11-20 13:52:00
9:52 AM,48.9,42.1,77,30.19,10.0,North,3.5,-,N/A,,Mostly Cloudy,350,2012-11-20 14:52:00
10:52 AM,54.0,43.0,66,30.19,10.0,NNE,4.6,-,N/A,,Overcast,20,2012-11-20 15:52:00
11:52 AM,55.9,43.0,62,30.16,10.0,NNW,4.6,-,N/A,,Mostly Cloudy,340,2012-11-20 16:52:00
12:52 PM,59.0,42.1,53,30.13,10.0,Calm,Calm,-,N/A,,Mostly Cloudy,0,2012-11-20 17:52:00
1:52 PM,59.0,42.1,53,30.10,10.0,West,3.5,-,N/A,,Mostly Cloudy,280,2012-11-20 18:52:00
2:52 PM,62.1,42.1,48,30.07,10.0,Variable,3.5,-,N/A,,Mostly Cloudy,0,2012-11-20 19:52:00
3:52 PM,61.0,41.0,48,30.07,10.0,Calm,Calm,-,N/A,,Mostly Cloudy,0,2012-11-20 20:52:00
4:52 PM,59.0,41.0,51,30.07,10.0,Calm,Calm,-,N/A,,Mostly Cloudy,0,2012-11-20 21:52:00
5:52 PM,51.8,41.0,67,30.08,10.0,Calm,Calm,-,N/A,,Scattered Clouds,0,2012-11-20 22:52:00
6:52 PM,48.9,39.9,71,30.09,10.0,Calm,Calm,-,N/A,,Partly Cloudy,0,2012-11-20 23:52:00
7:52 PM,48.9,41.0,74,30.10,10.0,Calm,Calm,-,N/A,,Partly Cloudy,0,2012-11-21 00:52:00
8:52 PM,43.0,39.0,86,30.11,10.0,Calm,Calm,-,N/A,,Clear,0,2012-11-21 01:52:00
9:52 PM,45.0,39.9,82,30.11,10.0,Calm,Calm,-,N/A,,Clear,0,2012-11-21 02:52:00
10:52 PM,45.0,41.0,86,30.11,10.0,Calm,Calm,-,N/A,,Clear,0,2012-11-21 03:52:00
11:52 PM,41.0,39.0,93,30.11,10.0,Calm,Calm,-,N/A,,Clear,0,2012-11-21 04:52:00